#timestamp,LO_Frequency,Hit,StdDev 
1540256415.9,286047001.9,N
1540256435.7,286047000.1,N
1540256455.6,286047001.8,N
1540256475.4,286047005.1,Y
1540256495.2,286047006.0,P
1540256515.1,286047001.3,N
1540256516.0,286047001.3,N
1540256535.8,286047000.6,N
1540256555.6,286047002.8,N
1540256575.5,286046998.2,N
1540256595.3,286046999.9,N
1540256615.2,286047001.8,N
1540256635.9,286047005.0,N
1540256655.7,286047004.8,N
1540256675.6,286047005.3,N
1540256695.4,286047005.2,N
1540256715.3,286047005.1,N
1540256735.1,286047004.9,N
1540256736.0,286047004.9,N
1540256755.8,286047006.9,Y
1540256775.7,286047002.1,P
1540256795.5,286047003.8,P
1540256815.3,286047001.8,N
1540256835.2,286047001.4,N
1540256855.0,286047001.7,N
1540256855.9,286047001.7,N
1540256875.8,286047002.2,N
1540256895.6,286047000.2,N
1540256915.4,286047001.3,N
1540256935.3,286046999.8,N
1540256955.1,286046999.9,N
1540256975.8,286047002.0,N
1540256995.7,286047000.1,N
1540257015.5,286047002.5,N
1540257035.4,286047003.7,Y
1540257055.2,286047002.8,P
1540257075.0,286047000.8,N
1540257075.9,286047000.8,N
1540257095.8,286047000.7,N
1540257115.6,286047000.0,N
1540257135.4,286047002.1,N
1540257155.3,286047000.1,N
1540257175.1,286047002.2,N
1540257195.9,286047002.5,N
1540257215.7,286047000.4,N
1540257235.5,286047002.3,N
1540257255.4,286047004.0,Y
1540257275.2,286047001.7,P
1540257295.0,286047004.1,P
1540257295.9,286047004.1,P
1540257315.8,286047003.8,N
1540257335.6,286047003.5,N
1540257355.5,286047003.5,Y
1540257375.3,286047000.5,P
1540257395.1,286047000.0,N
1540257415.9,286047000.8,N
1540257435.7,286047000.5,N
1540257455.5,286046998.4,N
1540257475.4,286046998.2,N
1540257495.2,286046997.7,N
1540257515.1,286046999.3,N
1540257516.0,286046999.3,N
1540257535.8,286046997.1,N
1540257555.6,286046996.7,N
1540257575.5,286046998.1,N
1540257595.3,286047000.5,N
1540257615.1,286047002.4,N
1540257635.9,286047001.3,N
1540257655.7,286047002.0,N
1540257675.6,286047002.7,N
1540257695.4,286047002.2,N
1540257715.2,286046999.9,N
1540257735.1,286046999.9,N
1540257736.0,286046999.9,N
1540257755.8,286047002.4,N
1540257775.6,286047001.7,N
1540257795.5,286047001.7,N
1540257815.3,286047004.3,N
1540257835.2,286047005.4,N
1540257855.9,286047007.0,Y
1540257875.7,286047006.7,P
1540257895.6,286047006.6,N
1540257915.4,286047006.9,N
1540257935.2,286047006.2,N
1540257955.1,286047007.8,Y
1540257956.0,286047007.8,P
1540257975.8,286047005.2,P
1540257995.7,286047003.8,P
1540258015.5,286047003.9,N
1540258035.3,286047004.1,N
1540258055.2,286047002.7,N
1540258075.0,286047002.1,N
1540258075.9,286047002.1,N
1540258125.8,286047003.5,E
1540258135.7,286047002.4,N
1540258155.5,286047000.5,P
1540258175.4,286046999.7,N
1540258195.2,286047000.6,N
1540258215.0,286046999.8,N
1540258215.9,286046999.8,N
1540258235.8,286047000.9,N
1540258255.6,286046999.2,N
1540258275.5,286046997.3,N
1540258295.3,286046997.6,N
1540258315.1,286046997.1,N
1540258335.9,286046996.5,N
1540258355.7,286047000.0,N
1540258375.5,286047002.7,N
1540258395.4,286047000.0,N
1540258415.2,286047001.2,N
1540258435.1,286046998.2,N
1540258436.0,286046998.2,N
1540258455.8,286047000.5,N
1540258475.6,286047000.9,N
1540258495.5,286047000.6,N
1540258515.3,286047002.8,N
1540258535.1,286047002.1,N
1540258555.9,286047004.4,N
1540258575.7,286047003.6,N
1540258595.6,286047003.8,N
1540258615.4,286047003.3,N
1540258635.2,286047005.8,N
1540258655.1,286047002.9,N
1540258656.0,286047002.9,N
1540258675.8,286047004.9,N
1540258695.7,286047006.5,N
1540258715.5,286047007.5,N
1540258735.3,286047008.9,Y
1540258755.2,286047006.4,P
1540258775.0,286047006.1,N
1540258775.9,286047006.1,N
1540258795.7,286047006.9,Y
1540258815.6,286047001.6,P
1540258835.4,286047001.6,N
1540258855.3,286047002.3,N
1540258875.1,286047002.3,N
1540258876.0,286047002.3,N
1540258895.8,286047002.7,N
1540258915.7,286047005.6,Y
1540258935.5,286047003.8,P
1540258955.3,286046999.7,N
1540258975.2,286047001.8,N
1540258995.0,286047003.9,N
1540258995.9,286047003.9,N
1540259015.8,286047002.5,N
1540259035.6,286047004.4,Y
1540259055.4,286046999.6,P
1540259075.3,286046998.6,N
1540259095.1,286047000.5,N
1540259115.9,286046999.1,N
1540259135.7,286046996.5,N
1540259155.5,286046999.0,N
1540259175.4,286047002.7,N
1540259195.2,286046998.1,N
1540259215.0,286046996.6,N
1540259215.9,286046996.6,N
1540259235.8,286046999.5,N
1540259255.6,286046997.1,N
1540259275.5,286046998.0,N
1540259295.3,286046995.6,N
1540259315.1,286046995.5,N
1540259335.9,286046995.9,N
1540259355.7,286046997.6,N
1540259375.5,286046993.9,N
1540259395.4,286046994.9,N
1540259415.2,286046997.1,N
1540259435.1,286046997.9,N
1540259436.0,286046997.9,N
1540259455.8,286046996.5,N
1540259475.6,286046998.4,N
1540259495.5,286046999.0,N
1540259515.3,286046998.4,N
1540259535.1,286046996.6,N
1540259555.9,286046997.2,N
1540259575.7,286046996.8,N
1540259595.6,286046996.1,N
1540259615.4,286046997.6,N
1540259635.2,286046997.8,N
1540259655.1,286046999.6,N
1540259656.0,286046999.6,N
1540259675.8,286046996.5,N
1540259695.6,286046996.6,N
1540259715.5,286046999.3,N
1540259735.3,286046998.7,N
1540259755.2,286046998.5,N
1540259775.9,286047000.4,N
1540259795.7,286046998.6,N
1540259815.6,286046999.2,N
1540259835.4,286046997.5,N
1540259855.2,286046997.8,N
1540259875.1,286046997.1,N
1540259876.0,286046997.1,N
1540259895.8,286046997.3,N
1540259915.7,286046995.6,Y
1540259935.5,286046995.4,P
1540259955.3,286046996.5,P
1540259975.2,286046998.1,N
1540259995.0,286046998.8,N
1540259995.9,286046998.8,N
